Location: Ellerstadt
(49.4644°N, 8.2615°E)
Time: 16:13:25
(UTC+00:00)

Cosmos 1727 Rocket - Visible Passes

Search period start: 23 June 2021 00:00
Search period end: 03 July 2021 00:00
Orbit: 960 x 997 km, 82.9° (Epoch: 22 June)

Date Brightness Start Highest point End Pass type
(mag) Time Alt. Az. Time Alt. Az. Time Alt. Az.
23 Jun 6.6 21:52:23 10° W 21:56:01 16° WNW 21:59:40 10° NNW visible
24 Jun 5.2 20:29:58 10° SW 20:35:58 45° WNW 20:41:56 10° N visible
25 Jun 6.1 20:57:25 10° WSW 21:02:41 28° WNW 21:07:57 10° N visible
26 Jun 6.6 21:25:41 10° W 21:29:37 17° WNW 21:33:34 10° NNW visible
28 Jun 6.1 20:30:55 10° SW 20:36:20 30° WNW 20:41:44 10° N visible
29 Jun 6.6 20:59:00 10° WSW 21:03:13 18° WNW 21:07:26 10° NNW visible
30 Jun 7.1 21:28:43 10° WNW 21:30:21 11° NW 21:31:57 10° NW visible
02 Jul 6.7 20:32:23 10° WSW 20:36:50 20° WNW 20:41:17 10° NNW visible
